User: anonymous   Login
Location: Unspecified
(0.0000°N, 0.0000°E)
Time: 02:50:19
(UTC+00:00)
Language:

GOES 1 - Orbit

View from above orbital plane
View from above orbital plane
View from above satellite
View from above satellite

Ground track
Ground track

The orbit data is extracted from the following two-line orbital elements,

1  8366U 75100A   17147.37149691 -.00000253 +00000-0 +00000-0 0  9997
2  8366 012.0822 318.7750 0003959 277.8399 061.4011 01.00279066152037
Epoch (UTC): 27 May 2017 08:54:57
Eccentricity: 0.0003959
inclination: 12.0822°
perigee height: 35767 km
apogee height: 35801 km
right ascension of ascending node: 318.7750°
argument of perigee: 277.8399°
revolutions per day: 1.00279066
mean anomaly at epoch: 61.4011°
orbit number at epoch: 15203

The dashed part of the orbit path shows where the satellite is in the earth's shadow,  

DLR